This is the latest recevied weather packets stored in our database for station/object PD2BVG. If no packets are shown the sender has not sent any weather packets the latest 10 day(s).
| Time | Temp. | Humidity | Pressure | Rain* | Wind** | Luminosity | Snow |
|---|---|---|---|---|---|---|---|
| 1787751841 | 25° C | 67% | 1014.5 hPa | 0 mm | - | 496 W/m² | - |
| 1787751781 | 25° C | 67% | 1014.5 hPa | 0 mm | - | 531 W/m² | - |
| 1787751721 | 25° C | 67% | 1014.5 hPa | 0 mm | - | 190 W/m² | - |
| 1787751661 | 25° C | 68% | 1014.6 hPa | 0 mm | - | 424 W/m² | - |
| 1787751600 | 25° C | 67% | 1014.6 hPa | 0 mm | - | 536 W/m² | - |
| 1787751541 | 25.56° C | 68% | 1014.6 hPa | 0 mm | - | 420 W/m² | - |
| 1787751482 | 25.56° C | 69% | 1014.6 hPa | 0 mm | - | 420 W/m² | - |
| 1787751422 | 25° C | 69% | 1014.6 hPa | 0 mm | - | 542 W/m² | - |
| 1787751362 | 25° C | 68% | 1014.6 hPa | 0 mm | - | 605 W/m² | - |
| 1787751302 | 25° C | 68% | 1014.6 hPa | 0 mm | - | 631 W/m² | - |
| 1787751242 | 25° C | 68% | 1014.6 hPa | 0 mm | - | 635 W/m² | - |
| 1787751184 | 25° C | 69% | 1014.6 hPa | 0 mm | - | 630 W/m² | - |
| 1787751123 | 25° C | 68% | 1014.6 hPa | 0 mm | - | 271 W/m² | - |
| 1787751054 | 25° C | 68% | 1014.6 hPa | 0 mm | - | 271 W/m² | - |
| 1787750992 | 25° C | 68% | 1014.7 hPa | 0 mm | - | 603 W/m² | - |
| 1787750933 | 25° C | 68% | 1014.7 hPa | 0 mm | - | 563 W/m² | - |
| 1787750872 | 25° C | 68% | 1014.8 hPa | 0 mm | - | 510 W/m² | - |
| 1787750812 | 25° C | 68% | 1014.8 hPa | 0 mm | - | 547 W/m² | - |
| 1787750749 | 25° C | 69% | 1014.7 hPa | 0 mm | - | 584 W/m² | - |
| 1787750689 | 25° C | 70% | 1014.7 hPa | 0 mm | - | 600 W/m² | - |
| 1787750629 | 25° C | 69% | 1014.8 hPa | 0 mm | - | 614 W/m² | - |
| 1787750570 | 25° C | 69% | 1014.6 hPa | 0 mm | - | 550 W/m² | - |
| 1787750509 | 25° C | 69% | 1014.7 hPa | 0 mm | - | 550 W/m² | - |
| 1787750450 | 25° C | 69% | 1014.7 hPa | 0 mm | - | 468 W/m² | - |
| 1787750389 | 25° C | 69% | 1014.6 hPa | 0 mm | - | 473 W/m² | - |
* Rain latest hour (hover to see other rain measurements)
** Current wind speed in m/s (hover to see current wind gust speed)